User: anonymous   Login
Location: Morlupo
(42.1333°N, 12.5000°E)
Time: 17:37:46
(UTC+00:00)
Language:

OBJECT-B - Orbit

View from above orbital plane
View from above orbital plane
View from above satellite
View from above satellite

Ground track
Ground track

The orbit data is extracted from the following two-line orbital elements,

1 40382U 15004B   20283.81495617 0.00004900  00000-0  98998-4 0    06
2 40382  97.0014 327.7245 0008710 306.6818  53.3181 15.46460095    09
Epoch (UTC): 09 October 2020 19:33:32
Eccentricity: 0.0008710
inclination: 97.0014°
perigee height: 421 km
apogee height: 433 km
right ascension of ascending node: 327.7245°
argument of perigee: 306.6818°
revolutions per day: 15.46460095
mean anomaly at epoch: 53.3181°
orbit number at epoch: 0

The dashed part of the orbit path shows where the satellite is in the earth's shadow,  

DLR